| Date | Time | Temp. (oF) | Dew Point (oF) | Rel. Hum. (%) | Press. (in.) | Wind Dir. | Wind Speed (mph) | Hourly Rainfall (in.) |
|
|---|---|---|---|---|---|---|---|---|---|
| 1 | 10/14 | 00:00 | 58 | 58 | 100 | 30.29 | ENE | 1 | 0.00 |
| 2 | 10/13 | 23:00 | 58 | 58 | 100 | 30.30 | NE | 1 | 0.00 |
| 3 | 10/13 | 22:00 | 58 | 58 | 100 | 30.31 | NE | 2 | 0.00 |
| 4 | 10/13 | 21:00 | 57 | 57 | 100 | 30.30 | ENE | 3 | 0.00 |
| 5 | 10/13 | 20:00 | 57 | 57 | 100 | 30.30 | NE | 1 | 0.01 |
| 6 | 10/13 | 19:00 | 58 | 58 | 100 | 30.30 | NNE | 2 | 0.00 |
| 7 | 10/13 | 18:00 | 58 | 57 | 99 | 30.30 | NNW | 3 | 0.00 |
| 8 | 10/13 | 17:00 | 59 | 56 | 92 | 30.29 | E | 2 | 0.00 |
| 9 | 10/13 | 16:00 | 60 | 57 | 91 | 30.30 | ENE | 2 | 0.00 |
| 10 | 10/13 | 15:00 | 60 | 55 | 85 | 30.31 | NE | 1 | 0.00 |
| 11 | 10/13 | 14:00 | 60 | 55 | 84 | 30.33 | ENE | 2 | 0.00 |
| 12 | 10/13 | 13:00 | 60 | 55 | 86 | 30.35 | ESE | 4 | 0.00 |
| 13 | 10/13 | 12:00 | 59 | 53 | 82 | 30.37 | E | 4 | 0.00 |
| 14 | 10/13 | 11:00 | 58 | 54 | 87 | 30.39 | ESE | 5 | 0.00 |
| 15 | 10/13 | 10:00 | 56 | 52 | 87 | 30.38 | ENE | 4 | 0.00 |
| 16 | 10/13 | 09:00 | 54 | 50 | 88 | 30.39 | ENE | 7 | 0.00 |
| 17 | 10/13 | 08:00 | 53 | 50 | 90 | 30.38 | ENE | 4 | 0.00 |
| 18 | 10/13 | 07:00 | 53 | 50 | 91 | 30.37 | NNE | 1 | 0.00 |
| 19 | 10/13 | 06:00 | 53 | 50 | 92 | 30.36 | E | 4 | 0.00 |
| 20 | 10/13 | 05:00 | 53 | 50 | 92 | 30.35 | ENE | 4 | 0.00 |
| 21 | 10/13 | 04:00 | 53 | 50 | 92 | 30.35 | NNE | 4 | 0.00 |
| 22 | 10/13 | 03:00 | 53 | 50 | 90 | 30.35 | ENE | 3 | 0.00 |
| 23 | 10/13 | 02:00 | 53 | 50 | 90 | 30.36 | ENE | 3 | 0.00 |
| 24 | 10/13 | 01:00 | 54 | 50 | 89 | 30.35 | ENE | 2 | 0.00 |